Regional Weather Roundup
Issued by NWS

Home | Current Version | Previous Version | Graphics & Text | Print | Product List | Glossary On
Versions: 1 2 3 4 5 6 7 8 9 10 11 12 13 14 15 16 17 18 19 20 21 22 23 24 25 26 27 28 29 30 31 32 33 34 35 36 37 38 39 40 41 42 43 44 45 46 47 48 49 50
000
ASUS43 KMKX 221500
RWRWI

WISCONSIN REGIONAL WEATHER ROUNDUP
NATIONAL WEATHER SERVICE MILWAUKEE/SULLIVAN WI
1000 AM CDT FRI AUG 22 2014

NOTE: "FAIR" INDICATES FEW OR NO CLOUDS BELOW 12,000 FEET WITH NO
SIGNIFICANT WEATHER AND/OR OBSTRUCTIONS TO VISIBILITY.

WIZ001-002-006>008-014>016-023>028-221600-
NORTHWEST WISCONSIN

CITY           SKY/WX    TMP DP  RH WIND       PRES   REMARKS
SUPERIOR ARPT  CLOUDY    60  60  99 NE13G18   29.97R FOG
ASHLAND        CLOUDY    65  63  93 NE8       29.97R FOG
HAYWARD        CLOUDY    69  68  96 NE5       29.95R FOG
SIREN          CLOUDY    64  64  98 CALM      29.95S FOG
RICE LAKE      CLOUDY    71  70  95 CALM      29.94S FOG
LADYSMITH      FOG       70  69  96 E5        29.95R VSB 3/4
EAU CLAIRE     CLOUDY    74  73  97 W5        29.91R
MENOMONIE      CLOUDY    74  72  91 W3        29.92R
NEW RICHMOND   CLOUDY    67  67 100 N3        29.95R FOG
OSCEOLA        CLOUDY    68  67  99 N3        29.97R
$$

WIZ003>005-009-010-017-018-221600-
NORTH CENTRAL WISCONSIN

CITY           SKY/WX    TMP DP  RH WIND       PRES   REMARKS
WOODRUFF       CLOUDY    67  65  92 CALM      29.98R FOG
RHINELANDER    CLOUDY    65  65 100 SE6       29.99R FOG
EAGLE RIVER    CLOUDY    65  65  98 SE5       29.98R FOG
LAND O LAKES   CLOUDY    66  65  96 SE3       30.00R
PHILLIPS       CLOUDY    67  66  97 CALM      29.96R
TOMAHAWK       CLOUDY    66  65  96 CALM      29.97S FOG
MEDFORD        FOG       67  67 100 SE3       29.95S VSB 1/4
MERRILL        LGT RAIN  66  66 100 CALM      29.97R
$$

WIZ029-030-035-036-043>047-221600-
CENTRAL WISCONSIN

CITY           SKY/WX    TMP DP  RH WIND       PRES   REMARKS
WAUSAU         CLOUDY    67  67 100 SE5       29.94S FOG
MOSINEE        CLOUDY    66  66 100 E3        29.96S FOG
MARSHFIELD     CLOUDY    73  71  93 SE7       29.94S FOG
STEVENS POINT  CLOUDY    67  67  98 E7        29.96S FOG
WAUPACA        FOG       72  70  94 E3        29.96S VSB 1/4
WAUTOMA        CLOUDY    73  73 100 CALM      29.94F FOG
WISC RAPIDS    CLOUDY    75  71  87 S5        29.95S
CAMP DOUGLAS   CLOUDY    73  73 100 SE6       29.94S FOG
$$

WIZ011>013-019>022-031-037>040-048>050-221600-
NORTHEAST WISCONSIN

CITY           SKY/WX    TMP DP  RH WIND       PRES   REMARKS
ANTIGO         CLOUDY    66  66 100 SE7       29.98R
STURGEON BAY   CLOUDY    70  66  88 E7        29.98R
GREEN BAY      CLOUDY    73  69  87 SE5       29.95S
MANITOWOC      CLOUDY    72  70  94 SE8       29.96S FOG
APPLETON       PTSUNNY   72  70  94 VRB5      29.96S FOG
CLINTONVILLE   CLOUDY    68  68 100 CALM      29.95S FOG
OSHKOSH        CLOUDY    73  70  90 E3        29.95R FOG
$$

WIZ032>034-041-042-053>061-221600-
SOUTHWEST WISCONSIN

CITY           SKY/WX    TMP DP  RH WIND       PRES   REMARKS
LA CROSSE      CLOUDY    77  72  84 VRB3      29.92R HAZE
SPARTA         CLOUDY    74  72  93 CALM      29.93S
VIROQUA        CLOUDY    73  73 100 SE5       29.95R
BOSCOBEL       PTSUNNY   79  72  79 VRB5      29.93S HX  82
PRAIRIE DU CHI CLOUDY    74  71  91 CALM      29.92S FOG
PLATTEVILLE    PTSUNNY   75  74  97 CALM      29.94F
$$

WIZ056-057-062-063-064-067-068-221600-
SOUTH CENTRAL WISCONSIN

CITY           SKY/WX    TMP DP  RH WIND       PRES   REMARKS
BARABOO/DELLS  CLOUDY    77  73  86 SE5       29.94S
LONE ROCK      CLOUDY    79  73  82 CALM      29.94S HX  82
WATERTOWN      CLOUDY    73  73 100 S3        29.95S FOG
MADISON        CLOUDY    76  72  87 SE3       29.95S FOG
MIDDLETON      CLOUDY    78  76  93 CALM      29.95S HX  80
MONROE         CLOUDY    73  73 100 SE3       29.95S FOG
JANESVILLE     CLOUDY    81  73  78 SW6       29.94R HX  85
$$

WIZ051-052-058>065-066-070>072-221600-
SOUTHEAST WISCONSIN

CITY           SKY/WX    TMP DP  RH WIND       PRES   REMARKS
MILWAUKEE      FOG       72  69  90 E8        29.96R VSB 1/4
WAUKESHA       MOSUNNY   75  72  88 CALM      29.96S
MILWAUKEE/TIMM CLOUDY    75  70  83 CALM      29.96S FOG
RACINE         CLOUDY    75  70  84 NE9       29.97R
BURLINGTON     CLOUDY    72  72  99 CALM      29.95R
KENOSHA        CLOUDY    76  73  91 CALM      29.96R
FOND DU LAC    PTSUNNY   77  71  82 S6        29.95S
SHEBOYGAN      CLOUDY    71  69  93 CALM      29.97R FOG
WEST BEND      CLOUDY    72  70  94 CALM      29.96S FOG
JUNEAU         CLOUDY    73  49  42 S5        29.96R HAZE
$$

LSZ147-162-221600-
LAKE SUPERIOR

STATION/POSITION TIME  TEMP    WIND        PRES    WAVE
                       AIR SEA DIR/SP/G            HT/PER
                 (UTC) (F)     (DEG/KT/KT) (MB)    (FT/S)
W MID LAKE BUOY  1350   58 59   40/ 12/ 14 1014.5R   2/ 4
DEVILS ISLAND    1400   59      60/ 14/ 15 1014.7R
PORT WING        1400   58      40/  9/ 10 1014.6
SAXON HARBOR     1400   65      50/  3/  5 1013.9R
$$

LMZ867-665-643>646-221600-
LAKE MICHIGAN

STATION/POSITION TIME  TEMP    WIND        PRES    WAVE
                       AIR SEA DIR/SP/G            HT/PER
                 (UTC) (F)     (DEG/KT/KT) (MB)    (FT/S)
N MID LAKE BUOY  1350   65 64  110/  6/  8 1014.6R   0
NORTHPORT PIER   1400   66     130/  4/  5 1014.9R
SISTER BAY       1426   68     150/  7/  9   N/A
KEWAUNEE LAKESHO 1400   66     140/  1/  2 1013.7R
SHEBOYGAN LAKESH 1400   67 64   80/  4/  4 1014.5S
ATWATER BUOY     1400   69      50/  6/  6 1015.3R
MILWAUKEE LAKESH 1400   69      40/  8/  9   N/A
S MID LAKE BUOY  1350   69 69   90/  2/  4 1014.3R   0
KENOSHA   LAKESH 1400   71      60/  4/  4 1013.5S
$$

TC  - TEMPERATURE IN CELSIUS
VSB - VISIBILITY IN STATUTE MILES
WCI - WIND CHILL INDEX
HX  - HEAT INDEX



USA.gov is the U.S. government's official web portal to all federal, state and local government web resources and services.